Regional Weather Roundup
Issued by NWS

Home | Current Version | Previous Version | Text Only | Print | Product List | Glossary Off
Versions: 1 2 3 4 5 6 7 8 9 10 11 12 13 14 15 16 17 18 19 20 21 22 23 24 25 26 27 28 29 30 31 32 33 34 35 36 37 38 39 40 41 42 43 44 45 46 47 48 49 50

000
ASUS43 KLOT 220103
RWRIL

ILLINOIS REGIONAL WEATHER ROUNDUP
NATIONAL WEATHER SERVICE CHICAGO/ROMEOVILLE IL
800 PM CDT SUN MAY 21 2017

NOTE: "FAIR" INDICATES FEW OR NO CLOUDS BELOW 12,000 FEET WITH NO
SIGNIFICANT WEATHER AND/OR OBSTRUCTIONS TO VISIBILITY.

* THESE STATIONS ARE NOT UNDER NWS QUALITY CONTROL. THEY ALSO MAY NOT
  REPORT WEATHER SUCH AS PRECIPITATION OR FOG.

ILZ001-002-007-009-015-016-024-220200-
NORTHWEST ILLINOIS

CITY           SKY/WX    TMP DP  RH WIND       PRES   REMARKS
MOLINE         CLOUDY    53  39  59 W15       30.04S
STERLING*      CLOUDY    51  42  71 W13       30.02S
SAVANNA*       CLOUDY    51  41  69 W9G18     30.01S
$$

ILZ003-004-008-010-011-017-018-220200-
NORTH CENTRAL ILLINOIS

CITY           SKY/WX    TMP DP  RH WIND       PRES   REMARKS
ROCKFORD       CLOUDY    50  41  71 W8        30.01S
FREEPORT*      CLOUDY    48  41  75 SW9       30.00F
ROCHELLE*      CLOUDY    49  42  77 W12G17    30.02S
DE KALB*       CLOUDY    49  42  75 W12       30.01S
PERU*          CLOUDY    51  41  70 W10       30.04S
$$

ILZ005-006-012>014-019>023-220200-
NORTHEAST ILLINOIS

CITY           SKY/WX    TMP DP  RH WIND       PRES   REMARKS
CHICAGO-OHARE  CLOUDY    52  40  63 W14       29.99S
CHICAGO-MIDWAY CLOUDY    53  42  66 W16G24    30.00S
AURORA         CLOUDY    51  43  74 W13       30.01S
LANSING*       CLOUDY    52  45  77 W10       30.01S
WAUKEGAN       CLOUDY    51  41  68 W8        29.96S
DUPAGE AIRPORT CLOUDY    50  42  74 W14       30.00R
KANKAKEE*      CLOUDY    53  42  67 W16G24    30.04S
WHEELING       CLOUDY    51  41  68 W14G22    30.00R
MORRIS*        CLOUDY    52  43  71 W12       30.02S
ROMEOVILLE*    CLOUDY    51  45  80 W15       30.02S
NORTHERLY ISL    N/A     53  40  61 SW9         N/A
$$

LMZ740>746-220200-
SOUTHERN LAKE MICHIGAN

STATION/POSITION SKY/WX   TEMP    WIND        PRES    VSBY  WAVE
                          AIR SEA DIR/SP/G                  HT/PER
                          (F)     (DEG/KT/KT) (MB)    (MI)  (FT/S)
SOUTHERN BUOY              48 45  270/ 12/ 14 1014.3          2/ 3
WILMETTE HARBOR            52 53                N/A           2/ 3
HARRISON CRIB              53     260/ 17/ 20   N/A
BURNHAM HARBOR             53     270/ 13/ 17   N/A
CALUMET HARBOR             53     240/  9/ 17 1015.4R
BURNS HARBOR               54     270/ 22/ 25 1015.9R
MICHIGAN CITY              54     250/ 23/ 26   N/A
MICHIGAN CITY 6N           53 53  270/ 17/ 23   N/A           3/ 4
ST. JOSEPH                 54 55  290/ 17/ 25 1015.8R         3/ 4
$$

ILZ025>027-034>036-040-047-049-050-058-095>099-220200-
WEST-CENTRAL ILLINOIS

CITY           SKY/WX    TMP DP  RH WIND       PRES   REMARKS
QUINCY         CLOUDY    59  48  67 NW6       30.08R
GALESBURG*     CLOUDY    53  45  74 W8        30.06R
MACOMB*        CLOUDY    56  47  72 W6        30.09R
JACKSONVILLE*  MOCLDY    57  47  69 NW3       30.08R
PITTSFIELD*    CLOUDY    61  49  65 W3        30.10R
$$

ILZ028>032-037-038-041>044-048-051>054-059>061-220200-
CENTRAL ILLINOIS

CITY           SKY/WX    TMP DP  RH WIND       PRES   REMARKS
PONTIAC        CLOUDY    53  46  76 W8        30.06S
BLOOMINGTON    CLOUDY    53  42  66 W10       30.07S
DECATUR        MOCLDY    56  45  66 NW6       30.09R
PEORIA         CLOUDY    54  43  66 W7        30.06S
LACON*         CLOUDY    53  43  69 W7        30.05S
LINCOLN*       CLOUDY    56  46  67 CALM      30.08R
SPRINGFIELD    MOCLDY    58  47  66 NW5       30.08R
TAYLORVILLE    PTCLDY    57  47  69 NW8       30.10R
$$

ILZ033-039-045-046-055>057-062-063-220200-
EAST-CENTRAL ILLINOIS

CITY           SKY/WX    TMP DP  RH WIND       PRES   REMARKS
CHAMPAIGN      MOCLDY    55  44  66 W17       30.08R
RANTOUL*       CLOUDY    55  46  72 W14G20    30.07R
MATTOON        CLEAR     58  49  72 NW14      30.07R
$$

ILZ079-100>102-220200-
SOUTHWEST ILLINOIS

CITY           SKY/WX    TMP DP  RH WIND       PRES   REMARKS
ALTON          PTCLDY    63  46  55 W12       30.10R
BELLEVILLE     CLEAR     64  47  55 NW7       30.10R
CAHOKIA*       CLEAR     64  45  49 NW9       30.09R
SPARTA*        CLEAR     64  48  54 W6        30.10R
$$

ILZ064>066-069>071-074>076-080>082-084>086-088>090-092>094-220200-
SOUTH-CENTRAL ILLINOIS

CITY           SKY/WX    TMP DP  RH WIND       PRES   REMARKS
CARBONDALE     CLEAR     66  49  54 NW5       30.08R
CAIRO*         PTCLDY    71  54  55 NW8       30.07R
EFFINGHAM*     CLEAR     62  51  66 W10       30.09R
MARION         CLEAR     68  50  52 NW5       30.09R
MT. VERNON       N/A     65  49  56 W3        30.08R
CENTRALIA*     CLEAR     65  50  57 NW8       30.08R
SALEM*         CLEAR     65  49  56 NW10      30.09R
$$

ILZ067-068-072-073-078-083-087-091-220200-
SOUTHEAST ILLINOIS

CITY           SKY/WX    TMP DP  RH WIND       PRES   REMARKS
LAWRENCEVILLE  CLEAR     66  51  58 NW14      30.05R
FLORA*         CLEAR     66  51  58 NW9G16    30.08R
FAIRFIELD*     PTCLDY    66  51  58 CALM      30.06R
HARRISBURG*    CLEAR     67  54  61 NW7       30.08R
ROBINSON*      PTCLDY    63  52  69 NW8       30.07R
CARMI*         CLEAR     67  52  58 W10       30.06R
$$

ABBREVIATIONS USED IN REMARKS
   TC - TEMPERATURE IN CELSIUS
  WCI - WIND CHILL INDEX
   HX - HEAT INDEX
  VSB - VISIBILITY
$$





USA.gov is the U.S. government's official web portal to all federal, state and local government web resources and services.